Location: Sternwarte Hubelmatt
(47.0367°N, 8.3053°E)
Time: 03:29:05
(UTC+02:00)

UWE-3 - Pass Details

Date: 04 May 2024
Orbit: 569 x 652 km, 97.8° (Epoch: 23 May)

Event Time Altitude Azimuth Distance (km) Brightness Sun altitude
Rises 02:42:29 0° 32° (NNE) 2,918 ? -24.5°
Reaches altitude 10° 02:45:49 10° 60° (ENE) 2,023 ? -24.3°
Maximum altitude 02:47:58 13° 89° (E) 1,816 ? -24.1°
Drops below altitude 10° 02:50:07 10° 118° (ESE) 2,035 ? -24.0°
Enters shadow 02:50:09 10° 118° (ESE) 2,041 ? -24.0°
